Flag for U.S.A. Weather past 2 weeks in Spartanburg, South Carolina, U.S.A.

Now
37 °F

Clear.


Feels Like: 32 °F
Forecast: 30 / 43 °F
Wind: 7 mph from Northeast

Location: Spartanburg Memorial

Current Time: Feb 28, 2015 at 12:35:58 AM

Latest Report: Feb 27, 2015 at 11:55 PM


Visibility: 10 mi

Pressure: 30.49 "Hg

Humidity: 65%

Dew point: 27 °F

Location of SpartanburgLocation

Historic Weather in Spartanburg — Graph

°F

Spartanburg temperature yesterday

Maximum temperature yesterday: 54 °F (at 3:35 PM)
Minimum temperature yesterday: 32 °F (at 6:15 AM)
Average temperature yesterday: 42 °F

Past Weeks' High & Low Weather Summary

 TemperatureHumidityPressure
High61 °F (Feb 14, 4:15 PM)100% (Feb 16, 7:35 PM)30.49 "Hg (Feb 16, 7:35 PM)
Low12 °F (Feb 20, 7:35 AM)13% (Feb 15, 3:55 PM)29.68 "Hg (Feb 26, 3:35 AM)
Average36 °F57%30.10 "Hg
* Reported Feb 12 11:15 PM — Feb 27 11:35 PM, Spartanburg, Weather by CustomWeather, © 2015

Note: Actual official high and low records may vary slightly from our data, if they occured in-between our weather recording intervals... More about our weather records

Advertising

Spartanburg weather history for previous 24 hours

 ConditionsComfort  
Time TempWeatherWind HumidityBarometerVisibility
11:35 PM
Fri, Feb 27
37 °FClear.6 mph70%30.49 "Hg10 mi
11:15 PM37 °FClear.6 mph70%30.47 "Hg10 mi
10:35 PM37 °FClear.5 mph65%30.46 "Hg10 mi
10:15 PM41 °FClear.6 mph57%30.45 "Hg10 mi
9:55 PM41 °FClear.6 mph57%30.45 "Hg10 mi
9:35 PM41 °FClear.8 mph57%30.43 "Hg10 mi
9:15 PM41 °FClear.7 mph61%30.42 "Hg10 mi
8:55 PM43 °FClear.5 mph57%30.41 "Hg10 mi
8:35 PM43 °FClear.No wind57%30.40 "Hg10 mi
8:15 PM45 °FClear.5 mph49%30.39 "Hg10 mi
7:35 PM45 °FClear.6 mph53%30.37 "Hg10 mi
7:15 PM46 °FClear.5 mph50%30.36 "Hg10 mi
6:55 PM48 °FClear.3 mph43%30.35 "Hg10 mi
6:35 PM50 °FClear.5 mph40%30.35 "Hg10 mi
6:15 PM50 °FSunny.6 mph40%30.35 "Hg10 mi
5:55 PM52 °FSunny.No wind38%30.34 "Hg10 mi
5:35 PM54 °FSunny.No wind35%30.34 "Hg10 mi
5:15 PM54 °FSunny.3 mph35%30.33 "Hg10 mi
4:55 PM54 °FSunny.5 mph35%30.33 "Hg10 mi
4:15 PM52 °FSunny.6 mph35%30.32 "Hg10 mi
3:55 PM54 °FSunny.5 mph35%30.32 "Hg10 mi
3:35 PM54 °FSunny.3 mph35%30.32 "Hg10 mi
3:15 PM52 °FSunny.No wind38%30.31 "Hg10 mi
2:55 PM52 °FSunny.No wind38%30.31 "Hg10 mi
2:35 PM52 °FSunny.5 mph38%30.31 "Hg10 mi
2:15 PM52 °FSunny.5 mph41%30.32 "Hg10 mi
1:55 PM50 °FSunny.6 mph40%30.32 "Hg10 mi
1:35 PM50 °FSunny.No wind43%30.33 "Hg10 mi
1:15 PM48 °FSunny.No wind46%30.34 "Hg10 mi
12:55 PM48 °FSunny.No wind46%30.35 "Hg10 mi
12:35 PM48 °FScattered clouds.No wind46%30.36 "Hg10 mi
12:15 PM46 °FPartly sunny.No wind50%30.37 "Hg10 mi
11:35 AM45 °FPartly sunny.No wind53%30.37 "Hg10 mi
11:15 AM45 °FBroken clouds.5 mph53%30.37 "Hg10 mi
10:55 AM46 °FMostly cloudy.5 mph50%30.36 "Hg10 mi
10:35 AM45 °FBroken clouds.3 mph53%30.36 "Hg10 mi
10:15 AM45 °FScattered clouds.8 mph53%30.35 "Hg10 mi
9:55 AM43 °FScattered clouds.6 mph57%30.35 "Hg10 mi
9:35 AM43 °FScattered clouds.7 mph57%30.34 "Hg10 mi
9:15 AM41 °FPartly sunny.5 mph66%30.33 "Hg10 mi
8:55 AM39 °FScattered clouds.3 mph70%30.33 "Hg10 mi
8:35 AM37 °FPartly sunny.6 mph75%30.32 "Hg10 mi
8:15 AM37 °FPartly sunny.5 mph75%30.30 "Hg10 mi
7:55 AM37 °FOvercast.5 mph75%30.29 "Hg10 mi
7:35 AM36 °FMore clouds than sun.3 mph75%30.28 "Hg10 mi
7:15 AM36 °FBroken clouds.5 mph87%30.27 "Hg10 mi
6:55 AM34 °FPassing clouds.3 mph100%30.26 "Hg10 mi
6:35 AM32 °FPassing clouds.No wind100%30.25 "Hg10 mi
6:15 AM32 °FPassing clouds.No wind100%30.24 "Hg10 mi
5:55 AM34 °FPassing clouds.No wind93%30.23 "Hg10 mi
5:35 AM34 °FPassing clouds.No wind93%30.22 "Hg10 mi
5:15 AM36 °FPassing clouds.No wind87%30.21 "Hg10 mi
4:55 AM37 °FOvercast.3 mph70%30.21 "Hg10 mi
4:35 AM37 °FOvercast.5 mph75%30.20 "Hg10 mi
4:15 AM37 °FOvercast.No wind81%30.20 "Hg10 mi
3:55 AM37 °FOvercast.No wind81%30.18 "Hg10 mi
3:35 AM37 °FOvercast.No wind81%30.16 "Hg10 mi
3:15 AM36 °FOvercast.No wind100%30.17 "Hg10 mi
2:55 AM36 °FOvercast.No wind100%30.18 "Hg10 mi
2:35 AM37 °FOvercast.No wind100%30.18 "Hg10 mi
2:15 AM37 °FOvercast.No wind93%30.18 "Hg10 mi
1:55 AM37 °FOvercast.No wind100%30.19 "Hg10 mi
1:35 AM36 °FPartly cloudy.3 mphN/A30.18 "Hg7 mi
1:15 AM36 °FOvercast.No windN/A30.17 "Hg7 mi
12:55 AM36 °FPassing clouds.No windN/A30.16 "Hg7 mi
12:35 AM36 °FPartly cloudy.No windN/A30.16 "Hg7 mi
12:15 AM36 °FOvercast.No windN/A30.15 "Hg7 mi
Weather by CustomWeather, © 2015

See weather overviewHow to use our weather pages